TimeCST,TemperatureF,Dew PointF,Humidity,Sea Level PressureIn,VisibilityMPH,Wind Direction,Wind SpeedMPH,Gust SpeedMPH,PrecipitationIn,Events,Conditions,WindDirDegrees,DateUTC
12:15 AM,21.2,3.2,46,30.30,10.0,SE,10.4,-,N/A,,Overcast,140,2013-01-25 06:15:00
12:35 AM,21.2,3.2,46,30.27,10.0,SE,11.5,17.3,N/A,,Overcast,130,2013-01-25 06:35:00
12:55 AM,21.2,3.2,46,30.26,10.0,SE,11.5,16.1,N/A,,Overcast,140,2013-01-25 06:55:00
1:16 AM,21.2,5.0,50,30.26,10.0,SE,11.5,16.1,N/A,,Overcast,130,2013-01-25 07:16:00
1:35 AM,21.2,5.0,50,30.25,10.0,SE,10.4,-,N/A,,Overcast,140,2013-01-25 07:35:00
1:55 AM,21.2,5.0,50,30.24,10.0,SE,10.4,-,N/A,,Overcast,130,2013-01-25 07:55:00
2:15 AM,21.2,5.0,50,30.23,10.0,SE,9.2,-,N/A,,Overcast,130,2013-01-25 08:15:00
2:35 AM,21.2,5.0,50,30.22,10.0,SE,8.1,-,N/A,,Overcast,130,2013-01-25 08:35:00
2:55 AM,21.2,5.0,50,30.21,10.0,SSE,9.2,-,N/A,,Overcast,150,2013-01-25 08:55:00
3:15 AM,21.2,5.0,50,30.19,10.0,SSE,8.1,-,N/A,,Overcast,150,2013-01-25 09:15:00
3:35 AM,19.4,8.6,63,30.17,8.0,SSE,9.2,16.1,N/A,,Overcast,150,2013-01-25 09:35:00
3:55 AM,19.4,8.6,63,30.17,9.0,SSE,8.1,-,N/A,,Overcast,150,2013-01-25 09:55:00
4:15 AM,19.4,10.4,68,30.16,4.0,SSE,8.1,-,N/A,,Overcast,150,2013-01-25 10:15:00
4:35 AM,19.4,12.2,74,30.16,2.0,SSE,5.8,-,N/A,,Overcast,160,2013-01-25 10:35:00
4:55 AM,19.4,12.2,74,30.16,2.5,Calm,Calm,-,N/A,,Overcast,0,2013-01-25 10:55:00
5:15 AM,19.4,14.0,80,30.16,2.5,South,3.5,-,N/A,,Overcast,170,2013-01-25 11:15:00
5:35 AM,19.4,14.0,80,30.15,7.0,South,4.6,-,N/A,,Overcast,170,2013-01-25 11:35:00
5:55 AM,19.4,14.0,80,30.14,10.0,South,3.5,-,N/A,,Overcast,180,2013-01-25 11:55:00
6:15 AM,19.4,14.0,80,30.12,7.0,SSE,5.8,-,N/A,,Mostly Cloudy,160,2013-01-25 12:15:00
6:35 AM,19.4,14.0,80,30.12,7.0,South,3.5,-,N/A,,Overcast,170,2013-01-25 12:35:00
6:55 AM,19.4,14.0,80,30.13,10.0,South,3.5,-,N/A,,Overcast,180,2013-01-25 12:55:00
7:35 AM,19.4,14.0,80,30.11,10.0,South,3.5,-,N/A,,Overcast,170,2013-01-25 13:35:00
7:55 AM,19.4,14.0,80,30.10,10.0,South,4.6,-,N/A,,Overcast,180,2013-01-25 13:55:00
8:15 AM,19.4,15.8,86,30.09,10.0,Calm,Calm,-,N/A,,Overcast,0,2013-01-25 14:15:00
8:35 AM,19.4,15.8,86,30.09,10.0,SSW,3.5,-,N/A,,Overcast,200,2013-01-25 14:35:00
8:55 AM,21.2,15.8,80,30.09,10.0,Calm,Calm,-,N/A,,Overcast,0,2013-01-25 14:55:00
9:15 AM,21.2,15.8,80,30.09,10.0,SW,5.8,-,N/A,,Overcast,230,2013-01-25 15:15:00
9:35 AM,23.0,15.8,74,30.09,10.0,WSW,9.2,-,N/A,,Overcast,240,2013-01-25 15:35:00
9:55 AM,24.8,15.8,69,30.07,10.0,WSW,9.2,-,N/A,,Overcast,250,2013-01-25 15:55:00
10:15 AM,24.8,15.8,69,30.07,10.0,WSW,12.7,-,N/A,,Overcast,250,2013-01-25 16:15:00
10:35 AM,24.8,17.6,74,30.06,10.0,WSW,11.5,-,N/A,,Overcast,250,2013-01-25 16:35:00
10:55 AM,26.6,17.6,69,30.06,10.0,West,13.8,18.4,N/A,,Overcast,270,2013-01-25 16:55:00
11:15 AM,26.6,17.6,69,30.05,10.0,WSW,11.5,-,N/A,,Overcast,250,2013-01-25 17:15:00
11:35 AM,26.6,17.6,69,30.04,10.0,West,16.1,-,N/A,,Overcast,260,2013-01-25 17:35:00
11:55 AM,30.2,19.4,64,30.02,10.0,West,16.1,-,N/A,,Mostly Cloudy,260,2013-01-25 17:55:00
12:15 PM,28.4,17.6,64,30.01,10.0,WSW,16.1,-,N/A,,Clear,250,2013-01-25 18:15:00
12:35 PM,30.2,21.2,69,30.00,10.0,West,17.3,20.7,N/A,,Partly Cloudy,260,2013-01-25 18:35:00
1:15 PM,32.0,19.4,60,29.98,10.0,West,18.4,-,N/A,,Partly Cloudy,260,2013-01-25 19:15:00
1:35 PM,33.8,19.4,56,29.98,10.0,WSW,16.1,25.3,N/A,,Clear,250,2013-01-25 19:35:00
1:55 PM,33.8,19.4,56,29.98,10.0,West,21.9,-,N/A,,Clear,270,2013-01-25 19:55:00
2:15 PM,33.8,19.4,56,29.98,10.0,West,25.3,29.9,N/A,,Clear,270,2013-01-25 20:15:00
2:35 PM,35.6,19.4,52,29.97,10.0,West,20.7,28.8,N/A,,Clear,270,2013-01-25 20:35:00
2:55 PM,35.6,19.4,52,29.98,10.0,West,23.0,29.9,N/A,,Clear,280,2013-01-25 20:55:00
3:15 PM,35.6,19.4,52,29.98,10.0,WNW,21.9,28.8,N/A,,Clear,290,2013-01-25 21:15:00
3:35 PM,35.6,17.6,48,29.98,10.0,WNW,24.2,28.8,N/A,,Clear,290,2013-01-25 21:35:00
3:55 PM,33.8,17.6,52,29.99,10.0,WNW,19.6,29.9,N/A,,Clear,300,2013-01-25 21:55:00
4:15 PM,32.0,17.6,55,30.01,10.0,WNW,17.3,31.1,N/A,,Clear,300,2013-01-25 22:15:00
4:35 PM,28.4,17.6,64,30.02,10.0,NW,18.4,28.8,N/A,,Partly Cloudy,310,2013-01-25 22:35:00
4:55 PM,28.4,17.6,64,30.03,10.0,NW,17.3,21.9,N/A,,Mostly Cloudy,310,2013-01-25 22:55:00
5:15 PM,28.4,17.6,64,30.03,10.0,WNW,10.4,-,N/A,,Overcast,300,2013-01-25 23:15:00
5:35 PM,28.4,17.6,64,30.04,10.0,WNW,9.2,-,N/A,,Overcast,300,2013-01-25 23:35:00
5:55 PM,28.4,17.6,64,30.05,10.0,WNW,8.1,-,N/A,,Overcast,290,2013-01-25 23:55:00
6:15 PM,26.6,17.6,69,30.05,10.0,WNW,9.2,-,N/A,,Overcast,290,2013-01-26 00:15:00
6:35 PM,26.6,17.6,69,30.06,10.0,WNW,11.5,-,N/A,,Overcast,300,2013-01-26 00:35:00
6:55 PM,26.6,15.8,64,30.07,10.0,WNW,20.7,26.5,N/A,,Partly Cloudy,300,2013-01-26 00:55:00
7:15 PM,26.6,10.4,51,30.08,10.0,WNW,15.0,20.7,N/A,,Clear,300,2013-01-26 01:15:00
7:35 PM,24.8,10.4,54,30.09,10.0,NW,15.0,21.9,N/A,,Clear,310,2013-01-26 01:35:00
7:55 PM,24.8,8.6,50,30.10,10.0,NNW,13.8,18.4,N/A,,Clear,330,2013-01-26 01:55:00
8:15 PM,23.0,10.4,59,30.11,10.0,NNW,13.8,-,N/A,,Clear,330,2013-01-26 02:15:00
8:35 PM,21.2,8.6,58,30.12,10.0,NNW,13.8,-,N/A,,Clear,340,2013-01-26 02:35:00
8:55 PM,21.2,8.6,58,30.11,10.0,NW,15.0,20.7,N/A,,Clear,320,2013-01-26 02:55:00
9:15 PM,21.2,6.8,54,30.13,10.0,NW,12.7,-,N/A,,Clear,320,2013-01-26 03:15:00
9:35 PM,21.2,6.8,54,30.14,10.0,NNW,11.5,17.3,N/A,,Clear,330,2013-01-26 03:35:00
9:55 PM,19.4,8.6,63,30.15,10.0,NNW,11.5,-,N/A,,Clear,330,2013-01-26 03:55:00
10:15 PM,19.4,8.6,63,30.16,10.0,NNW,13.8,19.6,N/A,,Clear,330,2013-01-26 04:15:00
10:35 PM,19.4,6.8,58,30.17,10.0,NW,17.3,23.0,N/A,,Clear,320,2013-01-26 04:35:00
10:55 PM,19.4,6.8,58,30.19,10.0,NNW,16.1,19.6,N/A,,Clear,330,2013-01-26 04:55:00
11:35 PM,17.6,6.8,63,30.21,10.0,NNW,12.7,17.3,N/A,,Clear,330,2013-01-26 05:35:00
11:55 PM,17.6,6.8,63,30.22,10.0,NNW,15.0,-,N/A,,Clear,330,2013-01-26 05:55:00